Regional Weather Roundup
Issued by NWS

Home | Current Version | Previous Version | Graphics & Text | Print | Product List | Glossary On
Versions: 1 2 3 4 5 6 7 8 9 10 11 12 13 14 15 16 17 18 19 20 21 22 23 24 25 26 27 28 29 30 31 32 33 34 35 36 37 38 39 40 41 42 43 44 45 46 47 48 49 50
000
ASUS43 KBIS 202120
RWRND

NORTH DAKOTA REGIONAL WEATHER ROUNDUP
NATIONAL WEATHER SERVICE BISMARCK ND
300 PM CST SAT DEC 20 2014

NOTE: "FAIR" INDICATES FEW OR NO CLOUDS BELOW 12,000 FEET WITH NO
SIGNIFICANT WEATHER AND/OR OBSTRUCTIONS TO VISIBILITY.


NDZ001>003-009>011-017-202200-
NORTHWEST NORTH DAKOTA

CITY           SKY/WX    TMP DP  RH WIND       PRES   REMARKS
WILLISTON      SUNNY     39  30  70 SW6       29.77F
MINOT          MOSUNNY   28  25  88 E3        29.78F
MINOT AFB      PTSUNNY   26  26 100 SE6       29.78F WCI  19
$$

NDZ018>021-031>035-040>046-202200-
SOUTHWEST NORTH DAKOTA

CITY           SKY/WX    TMP DP  RH WIND       PRES   REMARKS
BISMARCK       CLOUDY    32  27  81 CALM      29.84S
DICKINSON      SUNNY     48  30  49 W13       29.78F
GARRISON         N/A     35  29  78 SW7       29.79F
HETTINGER ARPT MOSUNNY   46  31  55 W10       29.83F
$$

NDZ004>008-012>016-024-026-027-054-202200-
NORTHEAST NORTH DAKOTA

CITY           SKY/WX    TMP DP  RH WIND       PRES   REMARKS
GRAND FORKS    FOG       28  27  96 S12       29.94F VSB 1   WCI  18
GRND FRKS AFB  CLOUDY    28  28 100 S10       29.94S FOG     WCI  18
DEVILS LAKE    CLOUDY    25  18  74 SE12      29.84F VSB 3/4 WCI  14
$$

NDZ022-023-025-028>030-036>039-047>053-202200-
SOUTHEAST NORTH DAKOTA

CITY           SKY/WX    TMP DP  RH WIND       PRES   REMARKS
FARGO          CLOUDY    31  27  85 S18       29.97S FOG     WCI  19
JAMESTOWN      CLOUDY    30  25  81 S10       29.87F HAZE
$$



USA.gov is the U.S. government's official web portal to all federal, state and local government web resources and services.